Powrót do katalogu

STARLINK-36820

AktywnyŁącznośćSSO
NORAD 67966·PAYLOAD·🇺🇸 United States

Wystrzelony Feb 25, 2026 z Vandenberg Space Force Base

Loading…

Następne Przeloty (najbliższe 24 godziny)

TLE

ŚwieżeSource: CelesTrak SupGP

Epoka: Sep 14, 2026, 23:16 UTC

1 67966C 26038F   26257.96993056  .00051604  00000+0  16009-2 0  2572
2 67966  97.2846 266.3554 0001309  79.4965 280.1499 15.33433112    16

Śledź STARLINK-36820 w czasie rzeczywistym z AllMySat

Download on the App Store